When you browse on this site, cookies collect data to enhance your experience and personalize the content and advertising you see.
Visit our Privacy Policy to learn more. By continuing to use the site, you agree to this use of cookies and data.
  • în România
  • Lista ţărilor
  • Pe 7 zile
  • Temperatura apei
  • Meteo pe hartă
  • Widget-uri
  • user-avatar
    Intrare

    Meteo pe oră la Yulara

    Astăzi, 19 Septembrie, Joi

    Timp Temperatura Precipitaţii Vânt Presiune Umiditate
    00:00 +20°C° 0 mm 3 m/s 718 mmHg 17%
    01:00 +20°C° 0 mm 3 m/s 717 mmHg 18%
    02:00 +19°C° 0 mm 4 m/s 717 mmHg 20%
    03:00 +19°C° 0 mm 4 m/s 716 mmHg 21%
    04:00 +18°C° 0 mm 4 m/s 717 mmHg 23%
    05:00 +18°C° 0 mm 3 m/s 717 mmHg 24%
    06:00 +18°C° 0 mm 3 m/s 717 mmHg 25%
    07:00 +22°C° 0 mm 5 m/s 717 mmHg 21%
    08:00 +27°C° 0 mm 7 m/s 718 mmHg 17%
    09:00 +32°C° 0 mm 8 m/s 719 mmHg 13%
    10:00 +34°C° 0 mm 9 m/s 718 mmHg 11%
    11:00 +37°C° 0 mm 9 m/s 717 mmHg 10%
    12:00 +38°C° 0 mm 10 m/s 716 mmHg 9%
    13:00 +38°C° 0 mm 10 m/s 716 mmHg 9%
    14:00 +39°C° 0 mm 10 m/s 715 mmHg 9%
    15:00 +39°C° 0 mm 10 m/s 714 mmHg 8%
    16:00 +37°C° 0 mm 9 m/s 714 mmHg 9%
    17:00 +34°C° 0 mm 7 m/s 714 mmHg 10%
    18:00 +33°C° 0 mm 6 m/s 714 mmHg 11%
    19:00 +32°C° 0 mm 6 m/s 714 mmHg 12%
    20:00 +30°C° 0 mm 6 m/s 714 mmHg 13%
    21:00 +28°C° 0 mm 6 m/s 714 mmHg 14%
    22:00 +28°C° 0 mm 6 m/s 714 mmHg 15%
    23:00 +27°C° 0 mm 6 m/s 714 mmHg 16%

    Mâine, 20 Septembrie, Vineri

    Timp Temperatura Precipitaţii Vânt Presiune Umiditate
    00:00 +26°C° 0 mm 6 m/s 713 mmHg 17%
    01:00 +23°C° 0 mm 7 m/s 713 mmHg 26%
    02:00 +21°C° 0 mm 9 m/s 713 mmHg 35%
    03:00 +18°C° 0 mm 10 m/s 713 mmHg 43%
    04:00 +16°C° 0 mm 9 m/s 714 mmHg 55%
    05:00 +13°C° 0 mm 8 m/s 714 mmHg 66%
    06:00 +12°C° 0 mm 7 m/s 714 mmHg 77%
    07:00 +13°C° 0 mm 8 m/s 715 mmHg 71%
    08:00 +15°C° 0 mm 9 m/s 716 mmHg 64%
    09:00 +16°C° 0 mm 10 m/s 717 mmHg 58%
    10:00 +18°C° 0 mm 9 m/s 717 mmHg 52%
    11:00 +19°C° 0 mm 9 m/s 718 mmHg 46%
    12:00 +21°C° 0 mm 8 m/s 718 mmHg 41%
    13:00 +22°C° 0 mm 8 m/s 717 mmHg 37%
    14:00 +22°C° 0 mm 7 m/s 717 mmHg 33%
    15:00 +22°C° 0 mm 6 m/s 717 mmHg 30%
    16:00 +21°C° 0 mm 6 m/s 717 mmHg 27%
    17:00 +20°C° 0 mm 5 m/s 718 mmHg 24%
    18:00 +19°C° 0 mm 5 m/s 718 mmHg 22%
    19:00 +16°C° 0 mm 5 m/s 719 mmHg 24%
    20:00 +14°C° 0 mm 6 m/s 719 mmHg 25%
    21:00 +11°C° 0 mm 6 m/s 720 mmHg 27%
    22:00 +10°C° 0 mm 6 m/s 720 mmHg 29%
    23:00 +9°C° 0 mm 6 m/s 720 mmHg 31%

    Poimâine, 21 Septembrie, Sâmbătă

    Timp Temperatura Precipitaţii Vânt Presiune Umiditate
    00:00 +8°C° 0 mm 6 m/s 720 mmHg 32%
    01:00 +7°C° 0 mm 5 m/s 720 mmHg 35%
    02:00 +6°C° 0 mm 5 m/s 720 mmHg 38%
    03:00 +5°C° 0 mm 5 m/s 720 mmHg 42%
    04:00 +5°C° 0 mm 5 m/s 721 mmHg 45%
    05:00 +3°C° 0 mm 5 m/s 721 mmHg 49%
    06:00 +3°C° 0 mm 5 m/s 722 mmHg 52%
    07:00 +6°C° 0 mm 5 m/s 722 mmHg 46%
    08:00 +9°C° 0 mm 6 m/s 723 mmHg 40%
    09:00 +11°C° 0 mm 6 m/s 723 mmHg 34%
    10:00 +14°C° 0 mm 6 m/s 723 mmHg 30%
    11:00 +16°C° 0 mm 6 m/s 722 mmHg 25%
    12:00 +19°C° 0 mm 5 m/s 722 mmHg 20%
    13:00 +20°C° 0 mm 5 m/s 721 mmHg 18%
    14:00 +21°C° 0 mm 4 m/s 721 mmHg 16%
    15:00 +22°C° 0 mm 3 m/s 720 mmHg 15%
    16:00 +20°C° 0 mm 3 m/s 720 mmHg 16%
    17:00 +18°C° 0 mm 2 m/s 720 mmHg 18%
    18:00 +17°C° 0 mm 2 m/s 720 mmHg 20%
    19:00 +16°C° 0 mm 3 m/s 721 mmHg 21%
    20:00 +14°C° 0 mm 3 m/s 721 mmHg 22%
    21:00 +13°C° 0 mm 4 m/s 722 mmHg 23%
    22:00 +12°C° 0 mm 5 m/s 722 mmHg 26%
    23:00 +10°C° 0 mm 5 m/s 722 mmHg 29%

    22 Septembrie, Duminică

    Timp Temperatura Precipitaţii Vânt Presiune Umiditate
    00:00 +9°C° 0 mm 5 m/s 722 mmHg 32%
    01:00 +8°C° 0 mm 5 m/s 722 mmHg 34%
    02:00 +7°C° 0 mm 5 m/s 722 mmHg 36%
    03:00 +7°C° 0 mm 5 m/s 722 mmHg 38%
    04:00 +6°C° 0 mm 5 m/s 723 mmHg 39%
    05:00 +6°C° 0 mm 5 m/s 723 mmHg 40%
    06:00 +6°C° 0 mm 5 m/s 723 mmHg 41%
    07:00 +9°C° 0 mm 6 m/s 724 mmHg 35%
    08:00 +11°C° 0 mm 7 m/s 724 mmHg 30%
    09:00 +15°C° 0 mm 8 m/s 724 mmHg 25%
    10:00 +18°C° 0 mm 8 m/s 724 mmHg 22%
    11:00 +21°C° 0 mm 7 m/s 724 mmHg 20%
    12:00 +23°C° 0 mm 6 m/s 724 mmHg 17%
    13:00 +24°C° 0 mm 6 m/s 723 mmHg 17%
    14:00 +26°C° 0 mm 6 m/s 722 mmHg 17%
    15:00 +26°C° 0 mm 5 m/s 722 mmHg 17%
    16:00 +25°C° 0 mm 5 m/s 722 mmHg 18%
    17:00 +23°C° 0 mm 4 m/s 722 mmHg 20%
    18:00 +22°C° 0 mm 4 m/s 723 mmHg 21%
    19:00 +21°C° 0 mm 4 m/s 723 mmHg 23%
    20:00 +20°C° 0 mm 5 m/s 724 mmHg 25%
    21:00 +19°C° 0 mm 5 m/s 724 mmHg 27%
    22:00 +17°C° 0 mm 4 m/s 724 mmHg 34%
    23:00 +16°C° 0 mm 3 m/s 724 mmHg 42%

    23 Septembrie, Luni

    Timp Temperatura Precipitaţii Vânt Presiune Umiditate
    00:00 +14°C° 0 mm 3 m/s 724 mmHg 49%
    01:00 +14°C° 0 mm 3 m/s 724 mmHg 47%
    02:00 +14°C° 0 mm 3 m/s 724 mmHg 45%
    03:00 +13°C° 0 mm 3 m/s 724 mmHg 42%
    04:00 +13°C° 0 mm 3 m/s 724 mmHg 47%
    05:00 +13°C° 0 mm 4 m/s 725 mmHg 52%
    06:00 +12°C° 0 mm 4 m/s 725 mmHg 57%
    07:00 +14°C° 0 mm 6 m/s 725 mmHg 48%
    08:00 +15°C° 0 mm 7 m/s 725 mmHg 40%
    09:00 +16°C° 0 mm 8 m/s 726 mmHg 32%
    10:00 +17°C° 0 mm 8 m/s 726 mmHg 35%
    11:00 +18°C° 0 mm 8 m/s 725 mmHg 38%
    12:00 +20°C° 0 mm 8 m/s 725 mmHg 41%
    13:00 +20°C° 0 mm 7 m/s 725 mmHg 43%
    14:00 +20°C° 0 mm 6 m/s 724 mmHg 44%
    15:00 +20°C° 0 mm 5 m/s 723 mmHg 46%
    16:00 +17°C° 0 mm 6 m/s 723 mmHg 53%
    17:00 +16°C° 0 mm 7 m/s 724 mmHg 60%
    18:00 +15°C° 0 mm 7 m/s 724 mmHg 66%
    19:00 +14°C° 0 mm 6 m/s 724 mmHg 72%
    20:00 +13°C° 0 mm 5 m/s 725 mmHg 77%
    21:00 +12°C° 0 mm 4 m/s 725 mmHg 82%
    22:00 +11°C° 0.1 mm 4 m/s 725 mmHg 84%
    23:00 +11°C° 0.1 mm 3 m/s 725 mmHg 85%

    24 Septembrie, Marţi

    Timp Temperatura Precipitaţii Vânt Presiune Umiditate
    00:00 +11°C° 0.1 mm 3 m/s 725 mmHg 86%
    01:00 +11°C° 0.6 mm 4 m/s 724 mmHg 87%
    02:00 +11°C° 0.6 mm 4 m/s 724 mmHg 88%
    03:00 +10°C° 0.6 mm 5 m/s 724 mmHg 88%
    04:00 +10°C° 0 mm 5 m/s 724 mmHg 88%
    05:00 +10°C° 0 mm 5 m/s 724 mmHg 88%
    06:00 +9°C° 0 mm 6 m/s 724 mmHg 88%
    07:00 +11°C° 0 mm 6 m/s 724 mmHg 79%
    08:00 +14°C° 0 mm 6 m/s 724 mmHg 69%
    09:00 +15°C° 0 mm 7 m/s 724 mmHg 60%
    10:00 +17°C° 0 mm 7 m/s 724 mmHg 54%
    11:00 +20°C° 0 mm 6 m/s 723 mmHg 47%
    12:00 +22°C° 0 mm 6 m/s 723 mmHg 41%
    13:00 +23°C° 0 mm 5 m/s 722 mmHg 39%
    14:00 +23°C° 0 mm 5 m/s 721 mmHg 38%
    15:00 +25°C° 0 mm 4 m/s 721 mmHg 36%
    16:00 +23°C° 0 mm 4 m/s 721 mmHg 37%
    17:00 +24°C° 0 mm 3 m/s 721 mmHg 38%
    18:00 +22°C° 0 mm 3 m/s 721 mmHg 39%
    19:00 +22°C° 0 mm 3 m/s 721 mmHg 41%
    20:00 +21°C° 0 mm 3 m/s 722 mmHg 42%
    21:00 +21°C° 0 mm 3 m/s 722 mmHg 44%
    22:00 +20°C° 0 mm 3 m/s 722 mmHg 46%
    23:00 +20°C° 0 mm 4 m/s 721 mmHg 47%
    Arată mai mult